CZ-3B DEB, 40185

Orbit data source: Space-Track

CZ-3B DEB, 40185 is space debris in HEO originally from a launch on Mon, 19 Dec 2011 UTC launched from the Xichang Space Center, China (XSC). Debris objects in space refer to the collection of defunct objects orbiting the Earth. Examples of debris include non-operational satellites, rocket bodies, and fragments generated from explosions, collisions, or faulty payload assembly.

Loading next visibility...
Identifier
40185, 2011-077J
Orbit
HEO
Country
Flag of CNCN / PRC
Related business
Manufacturer
CALT
Mission
Spacecraft
Bus & Motor
Unknown
Mass
Unknown
Launch date (UTC)
2011-12-19 (14 years ago)
Launch vehicle
Unknown
Launch site
Xichang Space Center, China (XSC)
Object type
Payload
Rocket body
Debris
Shape & HBR
Unknown shape, 0.6 m
Radar Cross Section
Medium (>0.1 m² and <1 m²)

Expand to show TLE details & history
Last TLE update: 1 day ago

TLE from 1 day ago
0 CZ-3B DEB
1 40185U 11077J   26126.26708230  .00000412  00000-0  20445-2 0  9993
2 40185  24.8568 251.9076 7490915 239.5420  27.6846  1.92970872 84520
Epoch: 2026-05-06T06:24Z
TLE epoch observation values (Epoch: 2026-05-06T06:24:35.910Z)
Latitude
0.00027°
Longitude
-68.36387°
Altitude
12,971.98 km
Speed
5.155 km/s
True Right ascension
16h 47m 39s
True Declination
0° 00' 01"
Sunlit
Object was in daylight at epoch
Visualization orbit readout
Latitude
Unknown
Longitude
Unknown
Altitude
Unknown
Speed
Unknown
Apparent Right ascension
Unknown
Apparent Declination
Unknown
Sunlit
N/A
Visualization observer readout
Local Sidereal Time
16:53:35
Azimuth
Unknown
Elevation
Unknown
Doppler factor
Unknown
Orbital elements
Apogee altitude
41,296.263 km
Perigee altitude
460.792 km
Semi-major axis
27,256.664 km
Eccentricity
0.74909
Inclination
24.8568°
RAAN
251.9076°
Arg. of periapsis
239.542°
True anomaly
120.69496°
Mean anomaly
27.6846°
Eccentric anomaly
67.27149°
Mean motion
0.48232 °/min
Orbital period
746.39 mins
BSTAR
0.0020445
Loading maneuver chart data...
Computing Atmospheric mass density...
Loading historical data...
Loading historical data...
Loading historical data...
Loading historical data...
Loading historical data...
Loading historical data...
Loading historical data...

Documentation

Showing up to 5 results
|